Location: Glens Falls
(43.3090°N, 73.6440°W)
Time: 20:29:48
(UTC-04:00)

Alouette 2 Rocket - Pass Details

Date: 24 February 2018
Orbit: 502 x 2651 km, 79.8° (Epoch: 17 June)

Event Time Altitude Azimuth Distance (km) Brightness Sun altitude
Rises 19:22:02 0° 188° (S) 2,660 6.8 -19.8°
Reaches altitude 10° 19:24:08 10° 187° (S) 1,718 5.8 -20.2°
Maximum altitude 19:27:41 80° 101° (ESE) 522 3.0 -20.8°
Drops below altitude 10° 19:31:33 10° 14° (NNE) 1,877 6.0 -21.5°
Sets 19:33:57 0° 14° (NNE) 2,938 7.0 -21.9°
